CW9203 Weather Reports


Display with metric or nautical units.
time (UTC)temp
F
wind
direction
speed
MPH
gust
MPH
rain 1hr
in
rain 24hr
in
rain mn
in
humidity
%
barometer
mb
20260507000306 70 334 5.0 13.0 0.00 0.03 0.02 4 1024.6
20260506235805 70 331 3.0 12.0 0.00 0.03 0.02 4 1024.6
20260506235306 70 351 6.0 13.0 0.00 0.03 0.02 4 1024.6
20260506233307 70 353 4.0 15.0 0.00 0.03 0.02 4 1024.8
20260506231305 70 305 4.0 13.0 0.00 0.03 0.02 4 1025.0
20260506230805 70 342 1.0 9.0 0.00 0.03 0.02 4 1025.0
20260506230305 70 2 7.0 15.0 0.00 0.03 0.02 4 1025.0
20260506225804 70 352 2.0 8.0 0.00 0.03 0.02 4 1025.1
20260506223304 69 335 3.0 8.0 0.00 0.03 0.02 4 1025.1
20260506222306 69 338 5.0 13.0 0.00 0.03 0.02 4 1025.2
20260506221305 69 356 7.0 18.0 0.00 0.03 0.02 4 1025.1
20260506220304 69 8 4.0 13.0 0.00 0.03 0.02 4 1025.3
20260506215307 68 346 5.0 13.0 0.00 0.03 0.02 16 1025.5
20260506214805 68 8 6.0 13.0 0.00 0.03 0.02 22 1025.5
20260506213805 68 18 5.0 14.0 0.00 0.03 0.02 25 1025.6
20260506212805 68 355 5.0 12.0 0.00 0.03 0.02 4 1025.7
20260506211305 67 19 6.0 12.0 0.00 0.03 0.02 4 1025.8
20260506210804 67 23 5.0 13.0 0.00 0.03 0.02 7 1025.9
20260506205306 67 29 6.0 10.0 0.00 0.03 0.02 7 1025.9
20260506204307 67 7 5.0 9.0 0.00 0.03 0.02 4 1026.0
20260506203804 67 44 4.0 12.0 0.00 0.03 0.02 4 1026.0
20260506202806 67 26 3.0 10.0 0.00 0.03 0.02 4 1026.0
20260506202306 67 357 5.0 8.0 0.00 0.03 0.02 4 1026.0
20260506201805 67 358 4.0 7.0 0.00 0.03 0.02 4 1026.1
20260506200304 65 34 3.0 7.0 0.00 0.03 0.02 4 1026.0
20260506195805 65 9 2.0 6.0 0.00 0.03 0.02 4 1026.0
20260506195306 64 31 2.0 7.0 0.00 0.03 0.02 4 1025.9
20260506194805 64 17 3.0 7.0 0.00 0.03 0.02 4 1025.9
20260506194306 64 18 3.0 8.0 0.00 0.03 0.02 4 1025.9
20260506193806 63 26 4.0 7.0 0.00 0.03 0.02 4 1025.9
20260506193305 63 34 5.0 8.0 0.00 0.03 0.02 4 1025.9
20260506192306 63 23 3.0 8.0 0.00 0.03 0.02 4 1026.0
20260506185804 63 19 4.0 12.0 0.00 0.03 0.02 4 1025.9
20260506185307 63 3 2.0 5.0 0.00 0.03 0.02 4 1025.9
20260506184805 63 21 2.0 7.0 0.00 0.03 0.02 4 1025.9
20260506183305 63 5 3.0 8.0 0.00 0.03 0.02 4 1025.9
20260506182307 62 20 2.0 7.0 0.00 0.03 0.02 4 1025.8
20260506181305 62 20 2.0 5.0 0.00 0.03 0.02 4 1025.9
20260506175807 62 23 2.0 7.0 0.00 0.03 0.02 4 1025.9
20260506175306 62 14 2.0 5.0 0.00 0.03 0.02 4 1025.9
20260506174307 63 36 2.0 7.0 0.00 0.03 0.02 4 1025.9
20260506173807 63 22 2.0 8.0 0.00 0.03 0.02 4 1025.9
20260506172805 63 20 4.0 8.0 0.00 0.03 0.02 4 1025.8
20260506172307 63 37 3.0 7.0 0.00 0.03 0.02 4 1025.8
20260506171807 63 33 3.0 6.0 0.00 0.03 0.02 4 1025.9
20260506170805 63 15 2.0 8.0 0.00 0.03 0.02 4 1026.0
20260506165305 63 20 2.0 3.0 0.00 0.03 0.02 4 1026.1
20260506164303 63 16 2.0 7.0 0.00 0.03 0.02 4 1026.0
20260506163804 63 23 2.0 7.0 0.00 0.03 0.02 4 1026.1
20260506163304 63 25 1.0 5.0 0.00 0.03 0.02 4 1026.2
20260506161304 63 0 2.0 7.0 0.00 0.03 0.02 4 1026.3
20260506155804 63 22 5.0 10.0 0.00 0.03 0.02 4 1026.3
20260506154804 63 9 2.0 5.0 0.00 0.03 0.02 4 1026.4
20260506154303 63 20 3.0 7.0 0.00 0.03 0.02 4 1026.4
20260506153304 63 22 2.0 3.0 0.00 0.03 0.02 4 1026.5
20260506151803 63 11 1.0 3.0 0.00 0.03 0.02 4 1026.5
20260506151304 63 27 1.0 6.0 0.00 0.03 0.02 4 1026.5
20260506150804 63 21 1.0 3.0 0.00 0.03 0.02 4 1026.5
20260506145804 62 22 2.0 5.0 0.00 0.03 0.02 4 1026.5
20260506141303 62 345 2.0 5.0 0.00 0.03 0.02 4 1027.0
20260506140304 62 24 0.0 1.0 0.00 0.03 0.02 4 1027.2
20260506134303 62 23 2.0 5.0 0.00 0.03 0.02 4 1027.3
20260506131304 61 306 0.0 2.0 0.02 0.03 0.02 4 1027.6
20260506130804 61 296 1.0 3.0 0.02 0.03 0.02 4 1027.6
20260506130304 61 307 1.0 2.0 0.02 0.03 0.02 4 1027.7
20260506125804 61 286 0.0 3.0 0.00 0.03 0.02 4 1027.8
20260506125305 61 321 1.0 7.0 0.00 0.03 0.02 4 1027.9
20260506124803 61 328 1.0 2.0 0.00 0.03 0.02 4 1027.8
20260506124304 62 323 1.0 2.0 0.00 0.03 0.02 4 1027.9
20260506123304 62 346 2.0 3.0 0.01 0.02 0.01 4 1028.0
20260506122305 62 14 1.0 3.0 0.01 0.02 0.01 4 1027.9
20260506121306 62 27 2.0 3.0 0.00 0.02 0.00 4 1027.8
20260506120818 62 12 2.0 5.0 0.00 0.02 0.00 4 1027.9
20260506120303 62 26 2.0 7.0 0.00 0.02 0.00 4 1027.9
20260506115804 62 30 3.0 6.0 0.02 0.02 0.02 4 1027.9
20260506114804 62 37 0.0 1.0 0.02 0.02 0.02 4 1028.0
20260506112306 62 14 2.0 3.0 0.00 0.00 0.00 4 1028.0
20260506111304 62 32 3.0 7.0 0.00 0.00 0.00 4 1028.0
20260506110804 62 38 5.0 8.0 0.00 0.00 0.00 4 1027.9
20260506105804 62 42 3.0 7.0 0.00 0.00 0.00 4 1028.0
20260506104303 62 39 3.0 7.0 0.00 0.00 0.00 4 1028.1
20260506102305 61 27 4.0 8.0 0.00 0.00 0.00 4 1028.1
20260506101803 61 21 4.0 8.0 0.00 0.00 0.00 4 1028.1
20260506100304 61 34 3.0 7.0 0.00 0.00 0.00 4 1028.2
20260506095803 61 37 5.0 9.0 0.00 0.00 0.00 4 1028.2
20260506095305 62 22 5.0 9.0 0.00 0.00 0.00 4 1028.2
20260506094804 62 20 3.0 8.0 0.00 0.00 0.00 4 1028.2
20260506093303 62 45 5.0 10.0 0.00 0.00 0.00 4 1028.2
20260506092804 62 35 4.0 8.0 0.00 0.00 0.00 4 1028.2
20260506092306 62 37 6.0 9.0 0.00 0.00 0.00 4 1028.1
20260506091804 62 30 3.0 8.0 0.00 0.00 0.00 4 1028.1
20260506085803 62 42 5.0 10.0 0.00 0.00 0.00 4 1028.1
20260506084303 62 30 5.0 10.0 0.00 0.00 0.00 4 1028.0
20260506082804 62 23 5.0 10.0 0.00 0.00 0.00 4 1028.0
20260506081804 62 26 5.0 7.0 0.00 0.00 0.00 4 1028.1
20260506080304 62 32 1.0 5.0 0.00 0.00 0.00 4 1028.2
20260506071304 63 29 2.0 6.0 0.00 0.00 0.00 4 1028.3
20260506070803 63 9 2.0 3.0 0.00 0.00 0.00 4 1028.2
20260506060304 65 35 1.0 3.0 0.00 0.00 0.00 4 1028.0
20260506051304 68 1 0.0 3.0 0.00 0.00 0.00 14 1028.0
20260506050805 68 333 2.0 7.0 0.00 0.00 0.00 18 1028.0
20260506050303 69 341 2.0 5.0 0.00 0.00 0.00 20 1028.1
20260506044304 69 321 1.0 3.0 0.00 0.00 0.00 25 1028.1
20260506043304 69 0 4.0 10.0 0.00 0.00 0.00 34 1028.1
20260506041804 70 355 5.0 12.0 0.00 0.00 0.00 43 1028.1
20260506041303 70 356 4.0 9.0 0.00 0.00 0.00 46 1028.1
20260506040803 70 21 3.0 12.0 0.00 0.00 0.00 46 1028.1
20260506035803 70 1 2.0 16.0 0.00 0.00 0.00 47 1028.1
20260506035306 70 347 4.0 13.0 0.00 0.00 0.00 48 1028.1
20260506034803 70 346 4.0 10.0 0.00 0.00 0.00 46 1028.1
20260506034304 70 350 5.0 13.0 0.00 0.00 0.00 48 1028.2
20260506033804 70 27 3.0 10.0 0.00 0.00 0.00 49 1028.2
20260506033303 70 339 2.0 8.0 0.00 0.00 0.00 46 1028.2
20260506032804 70 16 6.0 13.0 0.00 0.00 0.00 52 1028.1
20260506032306 70 8 6.0 15.0 0.00 0.00 0.00 51 1028.1
20260506030804 70 346 2.0 9.0 0.00 0.00 0.00 39 1028.2
20260506030304 70 318 1.0 10.0 0.00 0.00 0.00 37 1028.2
20260506025305 71 20 3.0 8.0 0.00 0.00 0.00 49 1028.4
20260506022804 71 330 2.0 3.0 0.00 0.00 0.00 46 1028.3
20260506021804 71 340 3.0 15.0 0.00 0.00 0.00 45 1028.3
20260506021304 71 348 5.0 14.0 0.00 0.00 0.00 47 1028.4
20260506015804 71 325 2.0 5.0 0.00 0.00 0.00 32 1028.4
20260506015305 70 342 3.0 12.0 0.00 0.00 0.00 4 1028.5
20260506014804 70 325 2.0 12.0 0.00 0.00 0.00 4 1028.5
20260506014303 69 31 7.0 12.0 0.00 0.00 0.00 4 1028.4
20260506013804 69 26 5.0 12.0 0.00 0.00 0.00 4 1028.5
20260506013303 69 350 5.0 12.0 0.00 0.00 0.00 4 1028.6
20260506011804 69 21 5.0 12.0 0.00 0.00 0.00 4 1028.6
20260506011303 69 41 4.0 10.0 0.00 0.00 0.00 4 1028.7
20260506010803 69 346 3.0 9.0 0.00 0.00 0.00 4 1028.7
20260506005804 70 336 2.0 8.0 0.00 0.00 0.00 4 1028.8
20260506004804 69 326 2.0 13.0 0.00 0.00 0.00 4 1028.8